Weather History for KSPG - October, 2010

Change the Weather History Date:

Wednesday, October 6, 2010

  Actual Average Record
Temperature  
Mean Temperature 74 °F -  
Max Temperature 81 °F 85 °F 92 °F (1973)
Min Temperature 66 °F 72 °F 60 °F (1964)
Cooling Degree Days 8    
Growing Degree Days 24 (Base 50)    
Moisture  
Dew Point 57 °F    
Average Humidity 57    
Maximum Humidity 68    
Minimum Humidity 38    
Precipitation  
Precipitation 0.00 in - - ()
Sea Level Pressure  
Sea Level Pressure 30.04 in    
Wind  
Wind Speed 15 mph (NNE)    
Max Wind Speed 20 mph    
Max Gust Speed -    
Visibility 10 miles    
Events      
Averages and records for this station are not official NWS values.
T = Trace of Precipitation, MM = Missing Value Source: NWS Daily Summary

Daily Weather History Graph

Daily Weather History Graph

Search for Another Location

Airport or City:

Trip Planner

Search our weather history database for the weather conditions in past years. The results will help you decide how hot, cold, wet, or windy it might be!

Date:

Astronomy

Oct. 06, 2010 Rise Set
Actual Time 7:25 AM EDT 7:10 PM EDT
Civil Twilight 7:02 AM EDT 7:34 PM EDT
Nautical Twilight 6:35 AM EDT 8:01 PM EDT
Astronomical Twilight 6:08 AM EDT 8:28 PM EDT
Moon 6:04 AM EDT (10/6) 6:13 PM EDT (10/6)
Length of Visible Light 12h 31m
Length of Day
11h 45m
Waning Crescent, 2% of the Moon is Illuminated
Oct 6
Waning Crescent
Oct 7
New
Oct 14
First Quarter
Oct 22
Full
Oct 30
Last Quarter

Hourly Weather History & Observations

Time (EDT) Temp. Heat Index Dew Point Humidity Pressure Visibility Wind Dir Wind Speed Gust Speed Precip Events Conditions
12:53 AM 72.0 °F - 61.0 °F 68% 30.06 in 10.0 mi NE 18.4 mph - N/A   Clear
1:53 AM 72.0 °F - 60.1 °F 66% 30.05 in 10.0 mi NNE 18.4 mph - N/A   Clear
2:53 AM 71.1 °F - 60.1 °F 68% 30.05 in 10.0 mi NNE 17.3 mph - N/A   Clear
3:53 AM 71.1 °F - 59.0 °F 66% 30.05 in 10.0 mi NE 15.0 mph - N/A   Clear
4:53 AM 70.0 °F - 57.9 °F 65% 30.04 in 10.0 mi NNE 16.1 mph - N/A   Clear
5:53 AM 69.1 °F - 57.0 °F 65% 30.04 in 10.0 mi NNE 15.0 mph - N/A   Clear
6:53 AM 68.0 °F - 57.0 °F 68% 30.05 in 10.0 mi NNE 13.8 mph - N/A   Clear
7:53 AM 66.9 °F - 55.0 °F 66% 30.06 in 10.0 mi NNE 12.7 mph - N/A   Clear
8:53 AM 69.1 °F - 55.9 °F 63% 30.08 in 10.0 mi NNE 13.8 mph - N/A   Clear
9:53 AM 71.1 °F - 55.9 °F 59% 30.09 in 10.0 mi NE 19.6 mph - N/A   Clear
10:53 AM 73.0 °F - 57.0 °F 57% 30.09 in 10.0 mi NE 17.3 mph - N/A   Clear
11:53 AM 75.0 °F - 57.0 °F 53% 30.09 in 10.0 mi NE 16.1 mph - N/A   Clear
12:53 PM 75.9 °F - 57.0 °F 52% 30.07 in 10.0 mi NE 15.0 mph - N/A   Clear
1:53 PM 78.1 °F - 55.9 °F 46% 30.03 in 10.0 mi NE 15.0 mph - N/A   Clear
2:53 PM 79.0 °F - 54.0 °F 42% 30.00 in 10.0 mi NNE 12.7 mph - N/A   Clear
3:53 PM 80.1 °F 80.0 °F 54.0 °F 40% 29.98 in 10.0 mi NE 11.5 mph - N/A   Clear
4:53 PM 81.0 °F 80.4 °F 53.1 °F 38% 29.97 in 10.0 mi NNE 10.4 mph - N/A   Clear
5:53 PM 80.1 °F 80.2 °F 55.9 °F 43% 29.97 in 10.0 mi NE 11.5 mph - N/A   Clear
6:53 PM 77.0 °F - 55.9 °F 48% 29.98 in 10.0 mi North 9.2 mph - N/A   Clear
7:53 PM 73.9 °F - 55.9 °F 53% 29.99 in 10.0 mi North 9.2 mph - N/A   Clear
8:53 PM 73.0 °F - 57.0 °F 57% 30.00 in 10.0 mi North 9.2 mph - N/A   Clear
9:53 PM 73.9 °F - 60.1 °F 62% 30.02 in 10.0 mi NE 10.4 mph - N/A   Clear
10:53 PM 73.0 °F - 57.9 °F 59% 30.04 in 10.0 mi ENE 17.3 mph - N/A   Clear
11:53 PM 72.0 °F - 57.9 °F 61% 30.05 in 10.0 mi ENE 16.1 mph - N/A   Clear